一网星座-0170星 (ONEWEB-0170 )

导读

ONEWEB-0170是英国OneWeb项目的低轨宽带通信卫星,于2021年3月25日发射入轨。单星质量约175-200kg,运行在1200公里高度的极轨轨道,采用Ku波段提供卫星互联网服务,单用户下载速率可达50Mbps。它是OneWeb全球低轨星座的组成部分,旨在为全球各地提供泛在高速卫星接入服务,助力偏远区域互联网覆盖。

Basic Information
目录编号:
48067
目录名称:
ONEWEB-0170
国际标识:
2021-025AB
轨道中心:
EARTH
卫星名称:
一网星座-0170星
卫星全名:
一网星座-0170星 (ONEWEB-0170 )
卫星状态:
在轨 (已飞行1907 天)
发射日期:
2021-03-25 UTC
国别 :
英国 (GB)
星等 :
--
Orbit Information
数据来源 国际轨道数据 AOE轨道数据
星历时间 2026-06-14T05:09:18+0800
14小时前
查看轨道信息
2026-06-13T07:00:00+0800
1天前
查看轨道信息
半长轴 7587.903km 7587.95km
偏心率 0.0001342 0.0001125
轨道倾角 87.895° 87.872°
近地点辐角 92.692° 236.789°
升交点赤经 320.879° 321.059°
平近点角 267.436° 80.823°
近地点 1208.747km 1208.959km
远地点 1210.785km 1210.667km
周期 109.633分钟 109.634分钟
每日圈数 13.1347 13.134577
Detailed Information
平衡模式:
三轴稳定
覆盖范围:
全球
运营商:
一网卫星公司
运营商所在国:
英国
制造商(研发单位):
一网卫星公司
制造商所在国:
英国
使用方式:
暂无
Satellite Introduction
OneWeb卫星网络由648颗重约125公斤的微型卫星组成,运行在1200公里的轨道上。 每颗卫星都能够提供至少每秒8千兆位的吞吐量,以使用其高吞吐量的Ku频段有效载荷为家庭和移动平台提供互联网接入。该卫星仍在工作。
2D Orbit Map
3D Orbit Map
Orbit Altitude Analysis Chart
Orbit Inclination Analysis Chart
Orbit Comprehensive Analysis Chart
View Comprehensive Chart